Flag Weather past 2 weeks in Toamasina, Madagascar

Now
81 °F

Passing clouds.


Feels Like: 84 °F
Forecast: 68 / 83 °F
Wind: 9 mph from Southeast

Location: Tamatave

Current Time: Nov 1, 2014 at 5:07:44 PM

Latest Report: Nov 1, 2014 at 4:00 PM


Visibility: N/A

Pressure: 30.01 "Hg

Humidity: 70%

Dew point: 70 °F

Location of ToamasinaLocation

Historic Weather in Toamasina — Graph

°F

Toamasina temperature yesterday

Maximum temperature yesterday: 82 °F (at 10:00 AM)
Minimum temperature yesterday: 66 °F (at 10:00 PM)
Average temperature yesterday: 75 °F

Past Weeks' High & Low Weather Summary

 TemperatureHumidityPressure
High84 °F (Oct 20, 1:00 PM)100% (Oct 20, 3:00 AM)30.09 "Hg (Oct 20, 3:00 AM)
Low63 °F (Nov 1, 2:00 AM)55% (Oct 31, 12:00 PM)29.83 "Hg (Oct 17, 4:00 PM)
Average77 °F85%29.97 "Hg
* Reported Oct 17 4:00 PM — Nov 1 4:00 PM, Toamasina, Weather by CustomWeather, © 2014

Note: Actual official high and low records may vary slightly from our data, if they occured in-between our weather recording intervals... More about our weather records

Advertising

Toamasina weather history for previous 24 hours

 ConditionsComfort  
Time TempWeatherWind HumidityBarometerVisibility
4:00 PM
Nov 1
81 °FPassing clouds.9 mph70%30.01 "HgN/A
3:00 PM82 °FPassing clouds.12 mph66%30.01 "HgN/A
2:00 PM82 °FPassing clouds.12 mph62%30.01 "HgN/A
1:00 PM82 °FPassing clouds.12 mph62%30.01 "HgN/A
12:00 PM82 °FScattered clouds.12 mph62%30.04 "HgN/A
11:00 AM82 °FScattered clouds.9 mph58%30.07 "HgN/A
10:00 AM82 °FScattered clouds.9 mph58%30.07 "HgN/A
9:00 AM81 °FScattered clouds.9 mph58%30.09 "HgN/A
8:00 AM79 °FPassing clouds.7 mph65%30.09 "HgN/A
7:00 AM75 °FPassing clouds.5 mph74%30.09 "HgN/A
6:00 AM64 °FPassing clouds.No wind100%30.07 "HgN/A
5:00 AM63 °FPassing clouds.No wind94%30.04 "HgN/A
4:00 AM64 °FPassing clouds.No wind94%30.04 "HgN/A
3:00 AM64 °FPassing clouds.No wind94%30.04 "HgN/A
2:00 AM63 °FPassing clouds.No wind94%30.04 "HgN/A
1:00 AM64 °FPassing clouds.No wind94%30.07 "HgN/A
12:00 AM64 °FPassing clouds.No wind94%30.07 "HgN/A
11:00 PM
Oct 31
66 °FPassing clouds.No wind88%30.07 "HgN/A
10:00 PM66 °FPassing clouds.No wind94%30.09 "HgN/A
9:00 PM68 °FPassing clouds.No wind88%30.09 "HgN/A
8:00 PM70 °FPassing clouds.No wind88%30.09 "HgN/A
7:00 PM75 °FPassing clouds.No wind74%30.07 "HgN/A
6:00 PM77 °FPassing clouds.2 mph65%30.07 "HgN/A
5:00 PM79 °FPassing clouds.7 mph65%30.04 "HgN/A
Weather by CustomWeather, © 2014

See weather overviewHow to use our weather pages